GFSSGP_925_temp_021.txt.gz
Temp
24 23 23 23 27 27 28 29 28 30 31 31 31 31 31 31 31 32 27 27 27 28 26 25 25 25 24 24 23 23 22 22 22 21 20 20 19 17 18 18 18 18 17 17 17 17 17 17 17
23 22 23 25 26 27 29 27 30 31 31 31 31 30 31 32 30 31 29 28 27 28 27 25 26 25 25 24 23 23 22 22 21 20 19 18 18 17 17 17 17 17 17 17 17 17 17 17 17
23 23 27 27 26 29 30 29 31 30 30 30 31 31 31 32 30 29 28 28 27 27 27 27 27 25 24 24 23 23 22 22 21 20 19 18 18 17 17 17 17 17 17 18 18 18 18 18 17
23 25 26 26 27 28 28 31 29 31 31 30 31 32 30 30 30 29 29 28 27 26 27 27 27 25 24 24 23 23 22 21 21 20 18 18 17 17 17 17 17 17 17 18 18 18 18 18 18
23 26 27 26 27 27 28 29 29 30 30 32 30 32 31 30 29 29 28 27 28 26 27 26 26 26 24 24 23 22 22 21 20 19 18 17 18 17 17 17 17 17 17 17 18 17 18 18 18
27 26 26 27 27 28 29 30 29 30 31 31 30 30 32 28 27 28 28 28 27 28 27 26 26 25 25 24 23 22 22 21 20 19 18 18 18 17 17 17 17 17 17 17 17 17 17 17 17
27 26 27 26 27 28 29 29 30 31 31 31 31 31 32 31 28 27 28 27 27 26 27 26 24 24 24 24 23 22 21 20 20 19 19 18 18 17 17 17 17 16 16 16 17 17 17 16 16
26 27 26 26 28 29 29 30 31 31 31 30 30 31 31 32 28 28 26 25 24 25 25 25 24 21 20 20 22 22 21 21 20 19 18 18 18 18 18 17 16 16 15 15 16 16 16 16 17
24 26 27 27 27 30 29 30 29 30 30 30 31 31 31 28 26 25 24 24 24 22 23 22 21 21 21 20 20 21 21 20 19 18 18 18 18 17 17 17 17 16 15 15 15 16 16 16 16
26 26 27 29 29 29 28 28 28 29 29 30 30 30 29 27 26 27 26 27 25 24 23 22 22 20 20 20 19 19 19 19 19 18 17 17 17 16 16 16 16 16 15 15 15 15 15 15 17
26 25 28 29 29 28 29 28 29 28 29 31 29 30 30 30 28 26 28 28 28 25 23 21 22 21 20 20 19 19 19 18 18 18 18 17 16 16 16 16 15 15 15 15 15 15 16 16 17
25 26 27 28 28 28 28 28 27 28 29 30 30 29 29 30 29 28 27 28 26 25 23 20 22 23 21 19 20 20 19 19 18 18 18 18 16 16 15 15 15 15 15 15 14 15 15 15 16
24 26 27 27 27 27 27 26 27 27 29 30 30 29 29 29 29 27 26 27 26 25 23 20 21 22 21 21 21 21 20 19 19 19 18 18 16 16 15 15 15 14 15 15 15 15 15 15 15
27 26 26 27 27 27 26 27 27 28 29 29 29 29 30 30 30 29 25 24 24 23 21 20 21 22 21 21 21 21 20 20 19 19 18 17 16 16 15 15 15 15 14 14 14 15 15 15 15
25 24 25 25 26 26 26 26 27 29 29 28 29 29 29 29 29 27 27 24 24 23 20 22 21 21 21 21 21 20 20 19 19 18 17 17 16 16 14 14 14 14 14 14 14 14 14 14 14
24 24 25 27 26 26 26 26 29 29 28 28 28 28 28 28 29 29 27 25 24 21 18 22 21 21 21 21 20 20 19 19 18 18 17 17 16 15 14 14 15 14 14 14 14 14 15 15 15
23 25 24 26 26 26 26 27 29 28 27 27 28 28 29 29 29 28 25 25 20 20 19 21 19 19 20 20 20 19 19 18 18 17 17 17 16 15 14 14 14 14 14 14 14 14 14 14 14
23 22 24 24 27 27 27 27 28 27 28 27 28 28 28 28 28 28 24 21 19 19 21 21 21 19 19 19 19 19 18 18 17 17 16 16 15 15 15 15 14 13 14 14 13 14 14 14 15
25 24 24 26 26 26 27 26 26 27 28 28 27 27 27 27 28 23 20 19 18 18 18 18 17 18 18 17 18 17 18 17 17 16 17 15 15 15 15 15 13 13 14 14 13 14 14 14 14
23 24 24 25 26 25 26 26 27 26 27 28 28 28 27 28 27 21 18 18 18 18 17 17 18 18 18 18 18 18 18 17 17 16 16 15 15 15 14 14 14 14 13 13 13 13 14 14 14
22 23 23 24 26 25 24 25 26 28 27 28 28 28 27 27 27 21 19 18 18 17 17 18 18 18 19 18 18 18 18 17 16 16 15 15 15 15 14 14 13 14 14 14 14 13 14 15 14
22 23 24 24 23 24 25 24 26 27 27 28 29 28 28 27 23 21 20 18 18 18 18 18 18 19 18 18 18 17 18 18 16 15 15 15 15 15 15 14 14 14 14 14 14 14 15 15 15
23 24 23 23 23 23 24 23 25 26 26 28 29 28 28 24 22 21 20 19 18 18 18 18 17 17 17 18 17 17 17 16 15 15 15 15 14 14 14 14 14 14 14 14 14 14 14 15 16
24 24 24 23 24 21 23 23 24 26 27 28 30 29 25 22 20 20 19 19 19 19 18 17 17 17 17 17 17 17 17 16 16 16 16 15 14 14 14 14 14 14 14 14 14 14 14 15 16
23 23 22 21 21 22 24 23 24 27 28 27 29 30 24 21 20 20 19 20 19 19 18 18 18 17 17 17 17 17 16 16 16 15 15 15 14 14 14 14 15 15 14 14 14 14 15 15 15
23 23 23 21 22 24 24 23 25 27 28 28 28 28 23 21 21 20 21 21 20 19 18 18 18 18 17 17 17 16 16 16 15 15 15 14 15 15 14 15 15 15 15 14 14 15 15 15 15
23 23 25 24 22 24 24 24 24 27 27 27 27 25 23 21 20 20 21 20 20 19 18 18 18 18 18 17 17 16 16 15 15 15 14 14 14 14 15 15 15 15 15 15 14 15 15 15 15
24 24 22 23 23 22 24 24 27 27 28 28 27 24 22 20 20 20 21 20 20 19 18 18 18 19 18 17 17 17 16 16 15 15 15 15 14 15 15 15 15 15 15 15 15 15 15 15 14
24 24 24 25 24 24 24 26 27 29 29 29 28 24 21 21 21 21 21 20 20 19 19 18 18 18 18 17 17 17 16 16 15 15 15 15 15 15 15 15 15 15 15 14 15 14 14 14 14
25 24 24 23 22 24 24 26 26 27 27 27 26 23 22 22 21 22 22 21 20 19 19 19 18 19 18 18 17 17 16 16 15 15 15 15 15 15 15 15 15 15 14 14 14 14 14 14 14

GFSSGP_925_temp_024.txt.gz
Temp
23 23 26 28 31 31 32 33 34 34 34 35 35 35 35 36 35 34 31 30 30 29 26 25 26 26 25 25 24 24 23 23 22 22 21 20 20 20 20 19 19 18 17 17 17 17 17 17 18
24 25 27 32 32 33 34 34 34 35 35 35 35 35 35 35 37 36 34 30 30 28 25 24 26 26 25 25 24 24 23 23 22 21 21 20 19 18 18 18 18 18 17 18 18 17 17 17 17
25 26 32 32 33 34 35 35 35 35 35 35 35 35 35 35 35 36 33 30 29 28 26 24 26 26 25 25 24 23 23 23 22 21 20 19 19 18 18 17 17 17 18 18 18 18 18 18 18
26 29 32 31 33 34 34 35 35 35 35 35 35 35 35 35 34 34 31 30 29 28 27 25 26 26 25 25 24 24 23 22 22 21 20 19 18 18 18 17 17 17 18 18 18 18 18 18 18
28 32 32 32 33 34 34 35 35 35 35 36 35 35 35 35 32 31 30 30 30 29 28 26 27 26 25 25 24 23 23 22 21 21 20 19 18 18 18 17 17 17 17 17 18 18 18 18 18
30 32 31 33 34 34 34 35 35 35 36 35 35 35 35 34 33 32 31 30 30 29 28 27 26 26 25 25 24 24 23 22 21 21 20 19 18 18 18 17 17 17 17 17 17 17 18 18 17
29 31 32 33 33 33 34 36 35 35 35 35 35 34 36 36 32 31 31 30 29 29 27 26 24 23 25 24 24 23 23 22 21 20 20 19 18 18 18 17 17 17 16 16 16 17 17 17 17
31 32 31 33 32 33 34 34 35 35 35 34 34 34 34 35 31 31 31 31 30 29 28 26 25 24 22 21 22 23 22 21 20 20 19 19 18 18 17 17 18 17 16 16 16 16 16 17 16
31 30 31 33 33 33 34 34 34 34 34 35 35 34 34 33 31 32 32 31 31 30 28 27 26 25 24 24 22 21 21 20 20 19 19 18 19 20 19 19 18 17 16 15 15 15 16 16 16
29 31 32 34 34 34 34 33 33 32 33 33 34 35 34 32 33 32 33 33 32 30 29 28 26 25 25 25 23 21 21 21 21 20 20 20 20 20 19 19 18 17 17 16 15 15 16 16 18
30 30 33 33 34 34 33 33 34 33 32 33 34 34 34 33 33 33 33 33 33 33 30 28 25 24 24 25 24 23 23 22 22 21 20 20 20 20 19 19 19 18 18 18 18 18 18 19 19
29 31 32 33 33 33 32 33 32 33 32 33 33 34 34 33 34 34 34 34 33 33 32 29 26 23 23 24 23 23 23 22 22 21 19 19 19 19 19 19 19 18 18 18 18 19 18 18 18
30 31 31 32 31 32 32 31 32 32 33 33 33 33 33 33 34 33 33 33 32 31 31 29 26 23 22 22 23 23 22 22 22 21 20 19 20 19 19 19 18 18 18 18 18 18 18 18 18
31 31 31 31 32 32 31 31 32 32 32 32 32 33 34 34 34 33 33 32 31 30 30 28 25 22 22 22 22 21 21 22 21 21 21 19 19 19 19 18 18 18 18 18 18 18 18 19 19
30 29 31 30 31 31 32 30 30 33 32 32 33 33 34 34 34 33 32 32 31 30 28 27 24 22 21 21 21 21 22 21 21 21 19 18 18 18 18 18 18 17 16 16 16 17 17 18 18
28 29 28 30 30 30 30 29 32 34 33 33 33 33 33 33 33 33 32 32 31 29 27 25 23 22 21 21 21 22 22 21 21 20 20 18 18 17 17 17 16 16 15 15 16 17 18 18 19
28 27 28 29 32 31 30 29 32 34 33 32 32 32 32 33 33 33 32 31 30 28 26 23 23 22 21 20 21 21 20 20 21 20 20 19 18 18 17 16 16 16 15 15 16 17 17 19 17
27 28 28 29 32 30 30 30 32 33 33 31 32 32 33 33 32 33 31 29 28 25 22 22 22 22 20 20 20 21 21 21 20 20 20 19 18 18 16 16 16 15 15 15 16 17 17 17 16
28 29 29 30 31 30 29 30 32 33 32 31 32 33 32 32 33 32 28 25 24 22 22 22 21 20 21 21 22 22 21 21 21 20 19 19 18 17 16 15 15 14 15 15 16 16 15 15 15
27 27 28 30 30 30 29 29 31 32 32 31 32 32 32 33 33 32 27 24 23 22 21 21 20 19 21 21 22 22 22 22 21 21 19 18 18 17 16 15 15 14 14 15 16 15 15 15 15
27 26 27 28 29 29 28 27 28 30 31 32 32 32 32 32 32 32 26 24 23 22 21 20 20 20 21 21 20 20 20 20 21 20 20 18 18 17 16 15 14 15 16 17 15 15 15 16 16
26 28 27 27 27 26 29 27 28 30 30 31 31 32 32 33 33 30 26 24 23 22 21 21 20 20 20 20 21 21 22 23 22 20 20 19 17 17 16 15 15 16 16 15 15 16 17 16 17
27 28 27 26 26 26 27 27 28 30 29 30 31 32 33 33 31 28 26 24 23 22 21 21 20 20 19 20 21 20 21 21 20 20 18 18 17 16 17 16 17 17 15 15 16 17 16 16 16
28 27 26 27 26 25 26 27 27 29 30 30 32 33 33 30 28 27 25 23 23 22 22 21 20 20 19 20 19 20 20 20 20 20 20 19 16 15 17 17 16 16 16 16 16 17 17 16 16
26 25 25 25 25 25 28 27 28 30 31 31 32 32 31 28 27 25 25 25 23 23 22 21 21 20 20 20 20 19 19 19 19 19 19 17 16 16 17 17 17 16 17 17 17 17 17 16 16
26 26 27 25 26 27 28 26 29 30 31 31 32 32 30 28 27 26 26 25 24 23 22 22 21 21 20 20 20 19 19 20 20 19 19 18 16 17 17 17 17 17 17 17 17 17 17 17 16
26 27 29 28 28 28 29 28 30 30 30 31 32 32 31 28 27 26 26 25 24 23 22 22 22 21 21 20 20 19 19 19 19 18 17 18 17 18 17 17 17 17 17 17 17 16 17 17 16
27 28 27 28 25 25 29 28 29 31 31 32 32 32 30 27 27 26 26 25 24 23 22 22 22 21 21 20 20 20 19 19 19 18 18 18 17 18 17 17 18 17 17 17 17 17 17 17 16
27 27 27 28 28 27 27 29 30 30 32 32 33 32 29 27 27 26 26 25 24 23 23 22 22 21 21 20 20 20 19 19 18 18 17 18 17 18 18 18 18 17 17 17 16 17 17 16 17
28 27 27 27 26 28 29 29 31 31 32 33 32 30 28 28 27 27 27 25 24 24 23 22 22 22 21 21 20 20 19 19 18 18 18 18 18 18 18 18 18 17 17 17 16 16 17 16 15

GFSSGP_925_temp_027.txt.gz
Temp
24 24 27 31 32 35 36 37 38 37 37 38 38 38 38 38 37 35 35 34 34 32 25 25 26 26 25 25 24 24 24 23 23 22 22 21 20 20 20 19 18 18 18 18 18 18 18 18 18
26 28 30 33 33 35 37 38 37 38 38 38 38 38 37 37 39 38 36 34 34 31 26 24 26 26 25 25 25 24 23 23 23 22 21 21 20 19 19 19 18 17 18 18 18 18 18 18 18
26 29 33 34 34 36 36 35 37 38 38 38 38 38 38 37 37 37 35 34 33 31 28 25 26 26 26 25 25 24 23 23 22 22 21 21 20 19 18 18 18 18 18 18 18 18 18 18 18
29 31 33 33 35 37 38 38 38 37 38 38 38 37 38 37 37 36 34 34 33 32 29 26 26 27 26 25 25 24 23 23 22 22 21 20 19 19 18 18 18 18 18 18 18 18 18 18 18
30 33 33 34 35 37 38 38 38 37 38 38 38 37 37 36 35 34 34 33 33 33 31 27 25 26 26 25 25 25 24 23 22 22 21 20 20 19 18 18 18 18 18 18 18 18 18 18 18
31 33 33 34 35 37 38 38 38 38 38 38 37 37 37 36 36 35 34 33 33 33 31 30 27 25 26 25 25 24 24 23 22 21 21 20 20 19 18 18 18 17 17 17 17 17 17 18 18
31 33 33 35 36 37 37 38 37 37 37 38 38 35 37 38 35 34 34 33 33 33 31 30 25 24 24 24 24 24 24 23 22 22 21 20 20 19 18 18 17 17 17 17 17 17 17 17 17
32 33 33 34 34 35 38 37 38 38 37 37 37 35 36 37 35 34 35 35 34 33 32 30 28 24 22 21 20 22 23 23 22 22 21 20 19 19 19 19 18 18 17 16 17 16 16 16 16
33 31 32 34 34 36 38 36 38 37 36 37 37 37 37 36 35 35 35 36 35 34 33 31 30 28 25 24 22 20 21 22 22 21 20 19 19 20 20 20 19 19 18 17 16 16 16 16 16
31 31 32 35 36 36 37 37 37 36 35 35 36 37 37 36 35 36 36 36 36 36 34 32 30 29 27 26 25 21 21 21 21 21 21 20 21 22 22 21 19 19 18 18 17 17 16 16 18
32 31 33 35 36 36 36 37 37 36 35 36 36 36 37 36 36 35 35 36 36 36 35 33 30 28 27 27 26 24 23 23 22 22 22 22 22 22 22 22 21 19 19 18 19 18 17 19 20
32 33 34 35 35 35 35 36 36 36 35 36 36 36 36 35 36 36 36 36 36 36 35 34 31 27 27 27 27 26 25 24 24 24 22 21 21 21 21 21 22 21 20 21 20 20 20 20 20
32 33 34 35 35 35 35 34 35 35 36 36 36 36 35 35 36 35 35 35 35 35 35 34 32 27 25 25 27 26 26 25 25 24 23 21 22 22 21 21 20 20 20 20 19 19 20 19 18
33 34 34 34 34 35 34 34 35 35 36 36 36 35 35 36 36 36 35 35 34 34 34 32 32 27 25 24 25 25 25 25 24 24 23 21 21 21 21 21 19 19 19 19 18 18 18 19 19
33 32 33 34 34 34 34 33 33 35 35 35 35 35 35 36 36 36 35 35 34 33 32 31 31 28 24 23 24 24 24 24 24 23 23 22 20 20 20 21 20 19 18 17 17 18 18 18 19
31 31 30 32 33 34 33 31 33 35 35 35 35 36 36 35 36 35 35 34 33 32 32 31 30 28 24 23 23 24 24 23 24 23 23 21 20 19 20 20 19 19 17 17 17 17 17 18 20
30 29 30 31 33 33 33 32 33 35 35 34 35 35 35 35 35 35 34 34 33 32 31 30 28 27 24 23 23 23 23 23 23 23 23 22 20 20 19 18 18 17 16 16 16 16 17 17 18
28 29 30 30 33 33 33 33 34 35 34 34 34 35 34 34 34 35 34 34 32 30 29 28 26 25 24 23 22 23 23 23 23 23 22 22 21 20 19 18 17 16 16 16 16 15 17 18 17
30 30 30 32 33 32 32 33 34 34 34 34 34 35 34 33 35 35 35 31 28 27 26 25 24 24 23 23 23 24 24 23 23 23 22 21 21 20 19 18 16 16 16 16 15 16 16 17 16
29 29 30 31 33 33 32 32 33 34 33 33 34 34 34 34 34 35 35 29 27 25 24 23 23 23 22 23 24 25 24 24 24 23 23 21 20 20 19 17 16 16 16 16 16 16 16 16 15
29 28 29 30 32 32 32 31 32 33 33 33 33 33 34 34 34 34 35 28 26 25 24 23 22 21 22 23 24 23 23 23 23 23 22 20 19 19 18 17 16 16 16 18 17 17 16 16 16
28 30 30 30 29 29 31 30 31 32 32 33 33 33 34 34 34 35 34 28 26 25 23 22 21 21 23 22 23 23 24 25 25 23 23 21 20 19 18 17 17 16 17 18 17 16 16 16 17
29 31 30 30 29 29 29 29 30 32 31 32 33 33 34 34 34 35 32 28 26 24 23 22 21 22 22 22 23 22 23 24 23 23 22 20 19 18 17 17 17 17 17 17 16 16 16 16 16
30 30 30 30 29 27 28 29 30 31 32 33 33 34 34 34 35 33 30 27 26 24 23 22 22 22 21 22 22 22 22 22 23 22 21 18 17 17 17 19 17 17 16 16 17 17 18 16 17
29 28 27 27 27 27 30 29 30 32 33 33 33 34 34 35 33 31 28 27 26 25 23 23 22 21 21 22 21 21 21 21 21 21 19 18 18 17 17 18 18 17 17 17 17 18 17 17 17
28 28 28 26 27 28 31 29 31 33 34 34 34 34 34 32 31 29 28 27 26 25 24 24 22 22 22 22 22 21 21 21 21 20 20 20 18 17 18 18 18 18 18 18 18 18 18 18 17
28 29 30 29 31 31 33 33 33 33 33 33 33 33 32 32 30 29 29 28 26 25 24 23 23 23 22 22 22 21 21 21 20 20 19 18 18 18 19 18 18 18 18 19 18 18 18 17 17
28 30 28 30 27 29 31 32 32 33 33 34 33 33 33 31 30 29 28 28 26 25 24 24 23 23 22 22 22 21 21 20 20 19 19 19 19 20 19 18 17 18 18 18 18 17 18 17 16
27 29 29 29 30 30 29 31 34 33 33 34 34 34 33 31 30 29 29 27 26 25 24 24 24 23 23 22 22 21 21 21 19 19 18 19 19 19 19 19 18 18 18 18 17 17 17 17 16
29 29 29 30 28 31 31 31 33 33 34 34 34 34 32 31 31 30 29 28 26 26 25 24 24 24 23 23 23 21 21 21 19 19 18 19 18 20 20 20 19 19 20 18 17 18 18 17 17

GFSSGP_925_temp_033.txt.gz
Temp
25 26 25 25 24 25 26 29 32 34 34 34 36 35 35 34 32 28 33 33 32 31 29 28 28 28 28 27 26 26 26 25 24 23 22 21 21 20 19 19 18 18 18 18 18 18 18 18 18
26 25 25 24 25 25 27 31 32 32 34 34 35 37 36 33 33 31 30 32 33 32 29 28 28 28 27 27 26 26 25 25 24 23 22 22 21 20 20 19 18 17 17 18 18 18 18 18 18
25 24 24 24 25 26 27 31 32 33 34 35 35 37 35 33 33 32 33 32 32 31 29 28 28 27 27 27 26 26 25 24 24 23 23 22 21 20 19 19 18 18 18 18 18 18 18 18 18
24 25 25 25 25 28 30 32 34 30 34 34 35 35 34 35 34 34 33 33 31 30 29 28 28 27 27 26 26 25 25 24 24 23 23 22 21 21 20 19 18 18 18 18 18 18 18 18 18
24 24 23 25 27 30 32 33 33 33 34 34 36 33 32 34 35 34 32 33 32 30 30 30 28 27 27 26 26 25 25 25 24 24 23 22 21 21 20 19 19 18 18 18 18 18 17 18 18
24 25 24 25 28 31 33 34 34 34 34 34 35 34 32 35 35 34 34 32 33 33 30 31 30 29 27 26 25 25 25 25 24 24 23 22 22 21 20 20 19 19 18 18 18 17 17 17 17
23 23 24 26 28 31 33 35 34 35 34 34 35 32 31 32 35 35 34 34 31 32 32 30 29 29 28 27 26 25 25 24 24 24 23 22 22 21 20 20 20 19 18 18 18 18 18 18 18
26 24 24 26 27 29 33 34 35 36 35 36 36 33 30 31 35 35 35 34 34 31 31 30 29 28 27 27 27 25 25 25 24 23 22 22 21 21 21 21 20 20 19 18 18 18 19 18 18
27 23 24 26 28 29 32 33 36 36 35 35 35 35 36 35 35 34 34 35 34 31 31 30 30 29 28 27 26 26 25 24 24 23 22 21 20 20 21 21 20 20 19 19 19 18 18 18 18
26 24 25 28 29 30 32 33 34 35 34 34 34 34 35 36 35 35 34 33 34 35 29 30 29 29 26 26 25 24 24 23 22 22 21 20 20 20 21 21 20 20 20 19 19 19 18 18 17
26 25 27 28 30 31 31 32 33 33 32 33 33 33 34 33 33 33 33 34 35 35 33 29 30 29 28 25 24 22 22 22 22 22 21 20 20 21 21 20 20 21 20 19 19 19 18 19 19
25 27 28 29 30 30 31 32 32 32 31 33 33 33 33 32 31 32 33 35 35 35 35 31 30 30 28 25 24 23 23 22 22 22 21 20 20 21 21 20 21 21 20 20 20 19 19 19 19
26 27 29 29 30 30 31 31 31 32 33 33 34 34 31 31 30 32 34 35 35 35 35 34 31 30 28 24 23 23 23 23 23 23 22 21 20 21 21 21 21 21 20 20 19 19 19 18 18
27 27 28 29 29 30 30 31 32 32 33 33 33 32 31 31 30 31 32 34 34 34 34 34 33 31 29 25 24 24 23 23 23 23 22 21 21 21 21 21 21 20 20 20 20 19 19 19 18
26 26 27 28 29 29 31 30 31 32 32 32 32 32 32 31 31 29 33 33 34 34 34 34 33 33 31 27 25 24 23 23 23 23 23 22 21 21 21 21 21 21 20 20 19 19 19 18 18
25 25 24 27 28 30 30 28 30 31 31 30 32 32 31 30 29 32 34 34 33 34 34 34 32 32 30 27 26 25 25 24 24 23 23 22 22 22 21 21 20 20 20 19 19 18 18 17 17
23 22 24 26 29 29 29 28 30 31 31 31 31 32 32 31 29 31 34 34 35 34 34 33 31 31 29 27 27 25 25 25 24 24 23 23 21 22 21 20 20 19 19 18 18 17 17 17 17
22 23 24 25 27 28 28 28 30 31 31 31 31 31 31 31 28 31 34 34 34 33 33 32 30 29 27 25 25 25 24 24 24 24 22 22 22 22 21 20 20 19 19 18 17 17 17 17 17
24 24 25 26 28 27 28 28 29 30 29 29 28 27 27 27 28 31 33 33 30 30 30 29 28 26 24 23 23 23 23 23 23 23 23 23 22 21 21 20 19 19 18 18 17 16 16 16 16
22 22 23 26 28 28 28 28 29 30 30 31 31 30 27 27 28 29 31 31 29 28 27 27 26 24 23 22 23 23 23 23 23 23 23 23 22 21 21 20 20 19 18 17 17 16 16 16 16
22 22 23 24 26 27 27 26 27 29 29 30 29 28 28 27 27 28 28 24 26 25 25 25 24 23 23 23 23 23 22 23 23 23 23 22 22 21 21 20 19 18 17 17 17 16 16 15 16
21 24 25 25 24 23 27 24 26 28 29 29 30 28 28 27 27 27 27 21 23 23 24 24 23 23 23 23 23 23 22 21 22 23 23 22 21 20 20 19 19 18 17 16 16 16 16 16 16
22 25 25 25 24 24 25 23 27 26 27 27 27 28 27 26 26 26 25 22 23 23 23 22 22 22 22 23 23 23 23 23 23 23 22 21 20 20 19 18 18 17 17 16 16 16 16 16 16
24 24 23 23 23 22 24 24 26 26 27 28 28 28 28 27 26 25 23 22 21 22 22 21 22 22 22 23 23 23 22 22 22 21 20 19 19 19 18 18 17 17 17 17 16 16 16 16 16
22 21 19 19 20 21 25 24 26 26 27 28 28 28 27 27 24 23 22 21 21 20 20 21 21 21 22 22 22 22 21 21 21 20 20 19 19 18 18 18 17 17 17 17 16 17 17 17 16
20 21 20 18 20 22 25 24 24 27 29 29 30 28 28 24 23 23 22 21 21 20 20 20 21 21 22 21 21 21 21 21 20 20 20 19 18 18 18 18 17 17 17 17 17 17 17 17 17
20 19 22 21 22 22 24 25 27 28 29 29 28 27 24 24 23 22 22 21 21 20 20 21 21 21 21 21 21 21 21 20 20 19 19 19 18 18 18 18 18 17 17 17 17 17 17 17 17
19 22 20 21 19 19 23 25 25 28 28 29 27 24 24 24 23 22 22 21 21 21 21 21 21 21 21 21 21 21 20 20 19 19 19 19 18 18 18 18 17 17 18 18 18 17 18 17 17
18 20 20 20 22 21 21 23 27 28 29 28 26 26 24 24 23 23 22 22 21 21 21 21 21 21 21 21 21 21 20 20 19 19 19 19 19 19 18 18 18 18 18 18 18 17 18 17 17
19 18 21 19 20 23 22 24 30 30 28 26 27 26 25 25 24 23 22 22 22 21 21 22 22 22 22 22 21 21 20 20 19 19 19 19 19 19 19 19 18 18 18 17 17 18 17 18 17

GFSSGP_925_temp_036.txt.gz
Temp
24 24 25 24 24 22 24 27 29 30 31 34 33 33 33 32 31 28 32 31 31 31 28 27 28 27 27 27 27 26 25 25 24 24 23 22 22 21 21 20 20 19 18 18 18 18 18 17 17
24 24 24 23 23 23 23 28 30 31 32 32 33 33 32 31 31 28 28 30 32 31 29 28 28 27 27 27 27 26 25 25 24 24 23 22 22 21 21 20 20 19 18 18 17 17 18 18 17
24 24 23 23 22 23 25 29 30 32 32 32 33 34 32 32 31 29 32 31 32 31 29 29 28 28 27 27 26 26 25 25 24 24 23 23 22 21 21 20 19 18 18 18 18 18 18 18 18
24 23 22 23 24 26 28 30 31 31 32 32 32 33 32 32 32 33 32 31 31 31 30 29 29 28 27 27 26 26 25 25 25 24 24 23 22 22 21 20 19 18 17 18 18 18 18 18 18
24 22 22 23 24 27 29 30 30 31 30 31 32 32 31 32 34 34 32 31 32 31 30 30 29 28 28 27 27 27 26 25 25 24 24 23 23 22 21 21 20 19 18 17 18 18 18 18 18
22 21 21 23 25 28 30 31 31 32 31 31 32 32 31 33 33 33 32 32 32 32 30 30 29 29 28 27 27 27 26 26 25 24 24 23 22 21 21 21 21 20 18 17 18 17 17 18 18
21 20 21 24 26 27 30 31 31 32 33 33 33 31 30 31 33 33 33 33 32 32 31 30 29 28 28 28 27 27 26 25 25 24 23 23 22 21 21 21 21 20 19 18 18 18 18 18 18
22 21 23 23 25 26 30 30 32 32 34 35 33 30 30 30 34 32 32 32 31 31 30 30 29 28 28 28 27 27 26 25 25 24 24 23 22 21 21 20 20 20 20 19 19 19 18 18 17
24 20 20 23 25 27 29 30 32 33 33 35 35 32 32 34 33 32 31 28 28 28 29 28 29 28 28 27 27 26 26 25 25 24 23 23 21 21 20 21 20 20 20 19 19 19 18 18 17
22 22 22 24 27 26 28 29 30 31 31 32 34 34 34 34 33 31 30 30 29 29 28 28 28 28 27 26 25 25 24 24 24 23 23 22 22 21 21 21 20 20 20 19 19 19 18 18 18
23 23 25 26 26 27 28 28 30 30 30 31 32 32 33 33 30 30 31 32 33 31 29 29 29 29 27 24 24 23 23 23 23 23 23 22 21 20 20 21 20 20 20 19 19 19 18 19 19
23 25 25 26 27 27 27 29 28 29 29 30 31 31 32 32 30 29 29 33 34 34 30 31 30 29 28 23 24 22 21 22 22 22 22 21 21 20 20 21 20 20 20 20 19 19 19 18 19
23 24 25 26 26 27 28 28 28 29 30 31 31 31 30 29 28 32 33 34 35 34 34 31 30 29 27 24 23 23 22 21 22 21 21 21 21 20 21 21 20 20 20 20 19 19 19 19 19
23 23 24 25 26 26 27 28 29 29 30 31 31 29 30 29 28 30 30 31 32 34 35 32 31 31 27 25 24 24 22 21 21 21 21 22 21 20 21 21 20 20 20 20 20 20 19 18 19
22 21 24 25 25 26 27 27 27 29 30 30 31 30 29 28 28 27 31 32 34 34 35 32 32 30 28 27 26 24 22 21 21 22 22 22 20 21 22 20 21 21 20 20 19 18 18 18 18
23 21 21 24 25 26 27 25 28 29 29 28 28 30 31 31 29 31 33 33 34 33 32 33 32 31 29 27 24 23 22 22 21 22 23 22 21 21 21 21 21 20 20 19 19 19 18 18 18
19 20 21 23 25 26 26 26 27 28 29 27 27 28 29 30 27 29 32 33 34 35 33 33 32 31 30 27 24 23 23 22 22 22 22 22 22 21 21 21 20 20 20 19 19 18 18 17 18
19 20 22 22 24 26 25 26 27 28 29 29 29 29 29 30 29 29 31 33 33 34 33 31 31 31 30 25 23 23 22 22 22 23 22 22 21 21 21 21 20 20 19 19 18 17 17 17 17
20 21 22 23 24 25 25 25 26 27 26 26 27 28 29 29 28 30 30 29 30 31 30 31 31 29 27 23 23 22 22 22 22 23 22 22 21 21 20 20 20 20 19 19 19 18 16 16 15
19 19 19 21 23 24 24 25 26 27 27 28 28 28 26 25 25 25 26 28 28 30 30 30 29 27 24 23 22 23 22 22 23 22 22 22 21 21 20 21 20 19 18 18 18 17 16 15 16
19 19 20 20 22 24 23 23 23 26 26 26 26 26 26 25 26 24 25 24 25 26 27 27 26 24 23 23 23 22 22 22 22 22 21 21 22 21 21 20 20 19 18 18 17 17 16 16 15
18 21 21 21 21 20 24 21 23 26 26 27 27 25 24 26 24 24 25 20 22 24 24 24 24 22 22 23 23 22 22 21 22 22 22 22 21 20 20 20 19 19 18 17 16 16 16 15 15
19 21 21 21 21 19 21 19 24 24 25 26 26 25 27 28 25 23 23 21 21 22 22 23 22 22 22 22 22 22 22 22 22 22 22 21 20 20 20 19 19 18 17 16 16 16 16 16 15
21 20 20 21 19 18 21 20 23 24 25 25 25 25 26 25 24 23 20 20 19 21 21 22 21 21 22 22 22 22 22 21 21 20 20 19 19 19 19 18 18 17 17 16 16 16 16 16 16
18 17 15 16 16 18 22 21 23 23 24 25 26 26 26 25 23 19 19 19 18 18 19 20 21 21 22 22 22 21 22 21 21 20 20 19 19 18 18 17 17 17 17 16 16 16 16 16 16
16 16 15 16 16 19 22 20 22 25 27 28 28 25 25 25 20 19 19 18 18 18 19 20 20 20 21 21 21 21 21 20 20 20 19 19 19 19 18 17 17 17 17 16 16 16 16 16 16
17 16 18 17 19 18 20 23 25 26 27 27 26 25 23 19 19 19 18 18 18 18 18 19 20 20 21 21 20 20 20 20 20 19 19 19 18 18 18 17 17 17 17 17 17 17 17 17 16
17 18 17 15 16 17 19 20 22 24 25 24 24 23 20 19 19 19 18 18 18 18 19 20 20 20 20 21 21 20 20 20 20 19 19 18 18 18 18 17 17 17 17 17 17 17 17 17 17
16 16 17 16 16 18 17 20 22 24 24 24 25 22 20 20 20 19 19 18 18 18 19 20 20 20 20 21 21 20 20 19 19 19 19 18 18 18 18 17 17 17 17 17 17 17 17 17 17
17 16 15 15 16 17 19 21 25 23 25 25 24 22 21 21 20 19 19 18 18 18 19 19 20 20 21 21 20 20 20 19 19 19 19 19 19 18 18 18 18 17 17 17 17 17 17 17 16

GFSSGP_925_temp_042.txt.gz
Temp
22 23 23 23 22 20 21 23 25 28 29 31 30 28 29 30 29 27 28 31 31 30 27 28 27 27 27 27 26 25 25 25 25 25 24 24 23 23 22 22 22 21 21 21 20 19 19 19 18
23 23 23 20 20 22 22 24 26 27 30 29 30 29 30 30 30 29 28 29 30 31 29 28 27 27 27 27 26 26 26 26 25 25 25 24 23 23 22 22 21 21 20 19 19 19 18 18 18
23 23 21 21 20 21 23 26 28 29 29 30 31 31 30 31 30 29 31 31 29 29 30 28 28 28 28 27 26 26 25 25 25 25 24 24 23 23 22 22 21 20 19 18 18 18 18 18 17
22 21 20 21 21 22 24 27 27 27 30 29 30 31 31 31 29 32 33 32 30 30 30 29 28 28 27 27 27 26 25 25 25 25 25 24 23 23 22 22 21 19 18 18 18 18 17 17 18
22 20 21 21 22 24 24 25 26 27 28 29 30 31 31 31 31 32 33 32 31 30 29 29 28 28 28 28 27 26 26 25 25 25 24 24 23 23 22 22 21 19 18 18 18 18 17 17 18
20 19 20 22 23 25 25 26 27 28 28 30 30 29 30 31 31 32 33 32 31 30 29 28 29 28 29 28 27 27 26 26 25 25 24 24 23 23 23 22 21 19 18 18 18 18 18 18 18
20 19 20 21 23 25 26 27 27 29 28 30 30 29 30 29 30 30 29 30 29 29 29 28 28 27 28 28 27 27 26 26 25 25 25 24 23 23 23 22 21 20 19 18 18 18 18 18 18
20 20 21 21 23 24 27 28 28 29 30 31 31 29 30 30 31 30 29 28 28 28 28 28 27 26 27 26 26 26 26 25 26 25 25 24 23 23 22 22 21 20 19 19 19 19 18 18 18
19 19 18 21 23 25 27 26 28 29 30 29 30 30 30 29 29 28 26 26 26 26 27 28 27 27 27 26 25 25 25 25 25 25 24 24 23 22 22 21 21 20 20 20 19 19 19 18 18
20 17 20 23 25 25 26 25 26 28 27 28 30 30 31 31 28 28 26 26 26 26 28 28 28 27 26 25 23 23 24 24 24 24 24 23 22 22 22 21 21 20 20 20 20 19 19 19 19
19 21 23 24 25 25 26 25 26 26 26 26 28 28 27 30 29 26 26 27 29 32 29 29 28 27 26 26 24 23 23 23 23 23 23 22 22 21 21 21 20 20 20 20 19 19 19 19 19
20 21 23 24 24 25 25 25 25 25 25 27 27 27 27 27 26 26 26 29 29 29 30 30 29 27 27 25 25 24 23 23 23 23 22 21 21 21 20 20 20 20 20 19 19 19 19 18 18
21 21 22 23 24 24 24 24 24 24 26 27 27 27 25 25 25 27 29 29 30 29 31 30 30 29 27 25 23 23 23 22 21 21 21 20 20 20 20 20 20 20 20 19 19 19 19 19 19
21 21 21 22 22 23 24 23 24 25 25 25 26 26 25 25 25 26 27 29 29 30 31 32 31 31 27 26 24 25 22 21 21 21 21 20 19 19 20 20 20 20 20 20 19 19 19 19 19
20 20 20 20 21 21 24 23 24 25 26 25 26 27 27 25 25 24 28 28 30 31 30 30 31 29 28 28 25 22 22 22 21 21 20 20 19 18 19 21 20 20 21 20 19 19 19 18 18
19 19 19 22 20 22 23 23 26 26 26 25 26 26 26 26 24 26 28 28 30 30 31 32 30 29 28 28 26 22 22 22 21 20 20 19 18 19 19 20 20 20 20 19 19 19 19 18 18
17 19 18 20 22 22 23 23 24 26 25 24 24 23 23 24 23 25 27 29 30 30 30 30 29 28 29 27 24 22 22 21 20 19 19 18 19 18 19 19 19 19 19 18 18 18 18 18 18
16 16 19 19 21 22 21 22 23 24 24 24 24 24 24 24 24 25 27 29 29 31 30 30 30 28 27 24 21 21 20 20 19 19 19 19 19 18 18 18 19 18 19 18 18 18 18 18 18
17 18 18 20 21 22 21 22 22 22 22 23 23 24 25 25 26 25 27 29 30 30 30 30 28 28 25 21 19 19 19 19 19 19 19 19 19 19 19 19 18 19 19 19 19 18 17 16 15
16 16 16 17 19 19 19 19 19 20 20 21 23 23 23 22 21 22 25 28 28 28 29 30 27 25 24 23 21 21 19 17 19 19 19 20 20 20 20 20 20 19 19 18 18 17 15 14 14
16 16 16 17 18 19 18 19 20 21 20 22 22 22 22 22 22 23 22 23 27 27 28 29 25 24 23 22 21 20 19 19 18 18 19 19 19 20 20 20 20 19 19 18 18 17 15 14 14
15 17 18 18 17 16 19 17 20 21 21 21 21 21 22 20 20 21 22 20 24 28 27 27 23 23 22 21 21 21 20 18 19 20 20 19 19 20 20 20 19 19 19 18 18 17 16 14 14
16 17 17 17 16 17 17 15 20 20 20 21 22 23 23 20 21 20 20 21 26 25 25 23 22 21 20 21 22 21 20 20 20 20 19 19 20 19 20 20 19 19 18 18 17 16 15 14 15
18 16 15 16 14 13 16 17 19 19 21 22 21 21 21 22 20 19 19 21 22 22 20 20 20 20 20 20 21 22 21 20 20 19 20 20 20 19 19 19 19 18 18 17 17 15 15 15 15
17 13 12 12 12 14 17 16 19 19 20 21 22 20 19 19 19 19 19 18 18 18 17 18 19 18 20 20 21 21 21 21 21 20 20 19 19 18 18 18 18 18 17 16 16 16 15 15 15
13 13 12 14 13 14 17 16 19 20 22 21 20 20 19 18 18 18 18 16 15 16 17 17 18 18 19 20 20 20 21 21 21 20 20 19 19 18 18 18 17 17 16 16 16 15 16 15 15
14 13 15 14 15 14 15 18 19 21 22 22 21 21 19 19 18 17 17 15 16 16 17 17 18 18 19 20 20 20 21 21 20 20 19 19 18 18 18 17 17 16 16 16 16 16 16 16 16
15 15 14 11 14 14 15 16 17 19 19 20 20 19 18 19 17 16 16 17 16 16 17 18 19 19 19 20 20 20 20 20 20 19 19 18 18 18 17 17 17 16 16 16 16 16 16 16 16
15 14 14 13 12 14 15 15 16 19 19 19 18 18 18 19 17 16 17 16 16 16 16 17 18 18 18 19 19 19 19 19 19 19 18 18 18 17 17 17 17 17 16 16 16 16 16 16 15
14 13 13 13 14 14 13 14 18 19 17 17 19 19 19 15 15 17 16 16 16 15 16 16 17 18 19 19 19 19 19 19 19 18 18 18 17 17 17 17 17 16 16 17 17 16 16 16 15

GFSSGP_925_temp_045.txt.gz
Temp
23 22 23 24 28 26 28 29 29 30 31 32 32 32 33 34 33 33 29 30 31 30 28 28 28 26 26 26 26 26 25 25 25 25 24 24 24 24 23 22 22 22 21 21 20 20 19 19 19
22 22 23 25 27 27 30 29 29 31 32 32 32 32 32 33 33 33 31 29 30 31 30 29 28 27 27 27 26 26 25 25 24 24 24 24 24 23 23 22 21 21 21 20 20 20 19 18 18
22 22 27 27 26 28 30 29 31 31 32 31 32 32 32 33 33 33 31 31 31 30 30 29 29 27 27 27 27 26 26 25 24 24 24 24 24 23 23 22 22 21 20 20 20 19 19 18 18
22 24 25 26 27 27 29 30 29 30 32 31 32 33 31 31 32 32 33 32 31 29 30 30 29 28 27 27 27 26 25 25 25 25 24 24 24 24 23 22 22 20 19 19 18 18 18 18 18
22 24 26 25 27 27 28 29 29 29 30 32 32 33 33 32 31 32 33 32 31 28 29 30 29 28 27 27 27 27 26 25 25 25 25 24 24 23 23 22 22 21 20 19 18 18 18 18 18
24 23 25 26 27 28 29 30 29 31 31 32 32 32 33 30 30 28 29 31 29 30 30 30 29 28 27 27 26 26 26 25 25 25 25 25 24 23 23 22 22 21 20 18 18 18 18 18 18
25 23 24 25 26 28 29 31 31 32 32 32 32 32 33 33 29 30 29 29 30 30 30 29 27 27 26 26 26 26 25 26 25 25 25 24 24 23 23 22 22 22 21 20 19 19 18 18 18
25 25 26 26 26 28 29 30 31 31 32 32 32 32 33 32 28 29 28 27 28 29 28 28 27 24 24 24 26 26 26 25 25 25 24 24 23 23 23 22 22 22 21 20 19 19 19 19 18
23 25 25 26 26 28 28 29 30 30 30 31 33 32 31 26 26 27 26 26 25 26 26 26 26 24 22 21 21 25 26 26 25 24 24 23 20 19 20 20 21 22 21 20 19 18 19 19 18
24 24 26 27 27 27 29 29 29 30 30 30 31 31 30 30 29 29 29 29 27 27 27 27 27 26 24 23 22 21 21 21 22 21 20 20 20 19 19 20 21 21 20 20 19 19 18 18 19
24 24 26 26 27 27 28 29 29 29 29 30 31 31 31 30 31 30 31 30 30 29 27 27 27 26 24 23 22 22 21 21 20 20 20 20 19 19 19 19 19 19 19 19 19 19 19 19 19
23 25 25 26 26 26 26 28 28 28 29 30 29 29 29 30 30 31 31 31 31 30 28 28 27 27 26 25 23 22 21 21 21 20 19 19 19 18 19 19 20 19 19 19 18 19 19 19 18
23 25 25 26 26 25 25 26 27 28 29 29 29 28 29 29 29 29 29 29 29 30 32 29 28 29 29 27 24 23 23 21 21 20 19 19 19 18 19 19 19 19 20 19 19 19 18 18 18
25 24 24 25 25 25 25 26 27 27 28 28 28 28 29 29 29 29 28 28 28 30 31 32 31 31 29 28 26 25 22 21 20 20 20 18 19 18 18 18 18 20 21 21 18 18 18 18 18
23 22 24 24 24 24 24 25 26 27 27 27 27 28 29 29 29 29 29 28 27 29 30 31 31 30 30 30 28 24 23 20 20 20 19 18 18 17 17 18 18 19 19 20 19 18 17 18 19
21 22 22 25 23 24 24 24 28 29 28 28 28 29 29 29 29 29 28 27 27 29 29 31 30 30 29 28 28 24 21 20 20 20 19 17 17 17 17 18 18 19 17 19 17 18 18 18 18
21 22 22 23 25 24 24 25 27 28 28 28 28 28 28 28 28 26 26 26 28 29 30 30 29 29 28 27 25 22 20 19 20 19 18 17 17 17 17 18 17 18 17 18 17 18 18 18 19
20 20 22 23 24 24 24 24 26 27 27 27 28 28 28 28 27 27 26 27 28 29 29 29 28 26 25 23 21 20 20 19 19 18 18 17 17 17 17 17 16 16 16 17 18 17 17 18 18
20 20 21 22 24 24 24 25 25 26 26 26 27 27 27 27 27 27 26 26 26 28 28 28 27 25 24 20 20 20 20 19 18 18 17 18 18 17 16 17 16 18 18 18 18 17 17 16 15
18 18 19 20 21 21 23 23 24 23 24 25 26 26 26 26 26 26 25 25 25 26 27 28 28 27 25 21 20 20 20 18 17 18 18 18 17 17 17 17 18 18 17 17 17 16 16 16 15
18 18 19 19 20 21 21 21 22 24 24 25 25 25 25 25 25 26 26 26 26 25 27 27 28 27 25 21 19 19 18 17 18 18 18 17 17 17 17 19 19 17 17 18 17 16 16 16 14
17 19 19 19 19 20 21 20 23 24 24 24 25 25 25 25 25 25 26 26 25 26 25 26 26 24 22 19 20 20 22 22 21 19 19 18 18 17 18 19 18 17 18 18 17 17 15 15 15
17 19 19 19 19 19 20 19 22 24 24 25 25 25 25 26 26 26 26 26 25 25 24 24 22 20 19 19 20 21 22 21 20 19 18 18 18 17 19 19 18 18 17 18 16 15 15 14 17
19 18 19 19 19 17 19 19 22 24 25 25 26 26 25 25 25 25 25 25 24 24 23 21 20 19 18 19 19 20 20 20 20 19 19 18 18 17 17 18 19 18 18 17 16 15 15 14 15
18 17 16 16 17 17 20 19 21 23 23 24 24 25 26 25 25 25 25 26 25 23 22 20 20 19 19 19 19 20 20 20 19 19 20 19 18 18 17 17 17 17 17 17 16 15 15 15 15
17 18 18 17 18 19 19 19 22 23 24 24 24 24 25 25 25 25 25 24 24 23 20 20 20 19 19 19 19 19 19 20 20 19 20 19 20 18 18 17 17 17 17 16 15 15 15 15 15
17 16 19 17 17 19 20 20 22 23 24 25 25 25 24 24 24 24 23 22 22 20 18 20 20 19 19 19 19 19 19 19 19 18 19 18 18 18 17 17 16 16 16 15 15 16 15 15 15
18 19 16 17 17 17 19 20 22 23 23 22 22 23 23 23 25 23 22 20 18 18 19 20 20 20 19 19 19 19 19 19 18 18 18 18 17 17 17 16 16 16 16 16 15 15 15 16 15
17 17 17 18 19 18 19 21 22 23 21 20 21 23 23 23 23 21 20 18 18 19 20 19 19 19 19 19 19 18 18 18 18 18 17 17 17 17 17 16 16 16 16 16 16 16 16 16 16
15 16 16 17 17 18 18 19 22 21 21 20 21 22 23 23 23 19 18 17 19 20 20 19 19 20 19 19 19 19 18 18 18 17 17 17 17 17 17 16 17 16 16 16 16 16 16 16 15

GFSSGP_925_temp_048.txt.gz
Temp
23 23 25 28 31 32 34 34 36 35 34 36 36 35 36 38 37 36 32 32 33 30 27 27 27 27 27 26 26 26 26 25 25 24 24 23 23 23 23 23 23 22 19 19 19 19 19 18 18
24 24 27 32 31 33 35 36 34 36 36 36 36 35 35 36 39 38 34 30 31 29 26 25 27 27 27 26 26 26 26 25 25 25 24 24 24 23 23 23 23 22 20 19 19 18 19 19 19
24 26 31 31 32 33 35 36 36 36 35 36 35 36 36 36 37 37 33 30 31 29 27 26 28 28 27 26 26 26 26 26 25 25 25 25 24 23 23 23 23 21 20 19 19 19 19 19 19
26 28 30 30 32 34 35 34 35 34 36 35 36 35 36 35 35 36 32 32 31 30 28 26 29 28 27 26 25 26 26 25 25 25 25 24 24 24 23 23 22 21 20 19 19 20 19 19 19
27 30 30 30 32 34 35 35 35 34 35 35 35 35 36 35 34 34 33 32 32 31 30 26 28 28 27 26 25 25 25 25 25 25 24 24 23 23 23 22 22 21 21 20 19 19 19 19 18
27 29 30 31 32 34 35 34 34 34 35 36 35 35 36 35 34 34 33 32 33 31 29 28 28 28 26 26 26 25 25 25 25 24 24 24 23 24 23 22 22 21 20 19 19 19 19 18 18
28 28 29 30 31 32 34 35 34 35 35 36 37 35 36 35 34 33 33 32 31 30 29 28 25 24 26 26 26 25 25 25 25 25 25 24 24 23 23 22 22 21 20 19 19 19 19 18 18
29 30 29 30 29 30 32 33 34 35 35 36 36 35 35 36 33 32 33 32 31 30 30 28 26 25 23 23 25 25 25 25 25 25 25 24 23 23 22 22 21 21 20 20 19 19 19 18 18
28 28 29 31 31 31 32 32 35 35 34 35 36 36 34 32 33 34 34 34 33 32 30 29 28 27 25 25 24 24 23 23 23 23 23 21 21 20 20 20 20 21 21 20 20 19 19 19 19
27 28 29 31 32 30 31 33 34 33 34 34 34 34 34 34 34 35 35 35 34 33 31 29 27 27 26 26 25 22 22 22 21 22 21 20 22 22 22 21 20 20 21 20 19 19 19 19 21
27 27 31 31 31 30 30 32 34 33 33 35 34 35 34 34 34 35 35 36 36 34 33 31 27 26 25 26 26 25 24 24 23 22 22 22 22 22 22 22 20 20 19 20 20 18 19 21 22
27 28 28 30 31 28 29 30 32 33 33 35 34 33 33 33 34 35 35 35 35 34 33 31 29 25 24 26 25 25 25 25 24 23 22 22 22 22 22 22 23 21 22 21 22 22 21 21 22
27 28 29 29 29 29 28 29 30 32 33 34 34 33 32 33 33 33 32 32 33 33 33 32 30 26 24 23 26 26 26 26 25 24 23 22 23 23 22 22 23 23 23 23 22 21 22 21 21
28 28 28 29 29 29 28 28 29 31 32 32 32 32 33 33 33 32 31 32 32 32 32 32 30 28 25 24 24 26 25 26 25 25 24 22 22 23 22 22 22 23 23 23 22 22 22 21 22
26 25 27 28 28 28 28 27 28 31 32 32 31 32 32 33 33 33 32 31 31 32 31 30 29 28 26 26 25 24 26 25 25 25 24 23 21 22 21 22 22 23 23 22 22 22 20 21 21
24 25 25 27 28 28 27 26 30 32 32 31 31 32 32 33 33 33 32 31 30 30 30 30 30 30 28 26 26 26 26 25 25 25 24 22 21 21 21 21 22 22 22 21 21 21 21 22 21
23 24 25 27 29 28 25 26 29 31 32 32 32 32 33 33 33 32 31 30 30 29 28 29 29 29 27 26 26 26 25 24 25 24 24 22 20 20 21 21 22 21 21 21 21 21 21 22 19
23 25 25 26 29 28 27 26 29 31 30 31 31 31 32 32 32 32 31 30 29 29 28 27 28 27 25 25 25 25 25 24 24 24 23 22 20 20 19 21 21 19 20 21 20 21 22 20 20
23 24 25 26 28 28 28 27 28 29 30 30 31 31 31 31 32 31 30 29 28 28 27 27 27 26 24 26 26 26 26 25 24 23 22 21 20 20 19 21 19 19 20 20 20 20 20 19 19
22 21 23 24 25 26 27 27 28 29 29 30 30 30 30 31 31 31 30 29 28 27 27 27 27 26 24 25 25 26 26 26 24 23 21 21 21 20 19 21 20 19 21 20 19 20 21 20 18
20 20 21 22 24 25 25 25 26 28 29 29 29 29 29 29 29 29 30 29 29 28 28 27 27 26 24 24 24 23 24 22 22 22 22 21 20 18 19 20 20 19 20 20 20 20 20 19 19
19 21 21 21 22 22 25 23 26 27 27 28 29 29 29 29 30 30 30 30 29 29 29 28 27 25 24 23 25 24 25 25 24 24 22 19 19 18 20 20 19 19 21 21 20 19 19 19 18
19 21 21 21 21 22 23 23 25 27 27 28 29 29 29 30 30 30 30 30 29 29 29 28 26 26 25 23 24 23 26 26 24 24 20 20 19 20 20 19 20 20 21 20 20 18 18 18 19
20 20 20 21 21 21 23 23 24 26 27 28 29 30 30 30 30 30 30 29 29 29 28 27 26 25 24 22 23 23 25 25 25 23 22 21 20 20 20 20 20 20 21 20 19 18 17 17 19
20 18 18 18 19 20 23 23 24 27 27 28 28 28 29 29 29 29 30 30 30 29 28 27 25 24 23 22 23 23 23 23 23 23 24 23 22 21 20 20 20 20 19 19 18 18 19 17 18
18 19 18 18 20 21 23 22 24 26 27 28 28 28 28 28 28 29 29 29 29 29 28 27 26 25 23 23 23 23 22 24 23 24 23 23 23 22 20 20 20 20 19 19 18 19 19 18 18
17 18 20 19 20 22 24 24 25 26 26 27 28 27 27 27 27 28 28 28 28 28 27 26 25 24 23 23 23 22 23 24 24 22 22 22 23 21 20 20 20 19 19 19 18 20 18 18 18
18 19 18 19 17 20 23 24 24 26 25 27 26 26 26 26 27 27 27 26 25 25 24 25 24 24 23 23 22 22 22 22 21 21 22 22 21 21 20 20 19 19 19 19 18 19 18 18 18
18 18 17 18 19 20 22 24 26 26 26 25 25 25 26 26 27 27 24 22 23 25 25 24 24 23 23 23 23 22 22 21 21 21 21 20 20 20 20 20 19 19 19 19 18 19 19 18 17
16 15 17 17 17 19 21 23 25 25 24 25 25 25 25 26 27 27 21 20 24 25 25 24 24 24 23 23 22 22 22 21 21 21 21 20 20 20 20 19 19 19 19 19 19 19 19 18 17